Regional Weather Roundup
Issued by NWS

Home | Current Version | Previous Version | Graphics & Text | Print | Product List | Glossary On
Versions: 1 2 3 4 5 6 7 8 9 10 11 12 13 14 15 16 17 18 19 20 21 22 23 24 25 26 27 28 29 30 31 32 33 34 35 36 37 38 39 40 41 42 43 44 45 46 47 48 49 50
000
ASUS43 KIND 030809
RWRIN

WEATHER ROUNDUP FOR INDIANA
NATIONAL WEATHER SERVICE INDIANAPOLIS IN
300 AM EST TUE MAR 03 2015

NOTE: "FAIR" INDICATES FEW OR NO CLOUDS BELOW 12,000 FEET WITH NO
SIGNIFICANT WEATHER AND/OR OBSTRUCTIONS TO VISIBILITY.

* - STATION DOES NOT REPORT WEATHER SUCH AS PRECIPITATION OR FOG.

+ - STATION NOT QUALITY CONTROLLED BY THE NATIONAL WEATHER SERVICE.
    USE DATA WITH CAUTION...ESPECIALLY DEWPOINT AND RELATIVE
    HUMIDITY OBSERVATIONS.

INZ001>003-010>013-019-020-030900-
NORTHWEST INDIANA

CITY           SKY/WX    TMP DP  RH WIND       PRES   REMARKS
GARY /AIRPORT/ CLOUDY    29  13  52 SE8       30.17F WCI  21
KNOX *+          N/A     27   5  39 E8        30.19F WCI  18
LA PORTE +     CLOUDY    27  17  65 SE6       30.19F WCI  20
MICHIGAN CITY+ CLOUDY    27  10  50 SE7       30.18F WCI  19
MONTICELLO +   CLOUDY    25  17  70 SE5       30.21F WCI  19
RENSSELAER +   CLOUDY    28  21  74 E8        30.17F WCI  20
VALPARAISO     CLOUDY    25  15  66 SE10      30.17F WCI  15

$$

LMZ046-743>745-030900-
SOUTHERN LAKE MICHIGAN

STATION/POSITION TIME  TEMP WIND        PRES
                       AIR  DIR/SP/G
                 (UTC) (F)  (DEG/KT/KT) (MB)
MICHIGAN CITY    0800   26  110/  9/ 11   N/A

$$

INZ004-005-014>016-021>024-030900-
NORTH CENTRAL INDIANA

CITY           SKY/WX    TMP DP  RH WIND       PRES   REMARKS
GOSHEN         CLOUDY    24  16  71 SE6       30.23F WCI  17
LOGANSPORT +   CLOUDY    25  19  80 E8        30.22F WCI  16
PERU/GRISSOM   CLOUDY    25  17  73 SE10      30.17F WCI  14
ROCHESTER +    CLOUDY    28  19  69 E6        30.22F WCI  22
SOUTH BEND     CLOUDY    26  15  63 SE10      30.22F WCI  16
WARSAW +       CLOUDY    25  18  74 SE5       30.24S WCI  19

$$

INZ006>009-017-018-025>027-030900-
NORTHEAST INDIANA

CITY           SKY/WX    TMP DP  RH WIND       PRES   REMARKS
ANGOLA *+      PTCLDY    21  16  79 SE5       30.23F WCI  15
AUBURN +       CLOUDY    25  16  68 CALM      30.27S
FORT WAYNE     CLOUDY    23  15  71 E7        30.26F WCI  15
HUNTINGTON +   CLOUDY    24  12  60 E3        30.24F

$$

INZ028-029-035-036-043>045-051>053-030900-
WEST CENTRAL INDIANA

CITY           SKY/WX    TMP DP  RH WIND       PRES   REMARKS
CRAWFORDSVL +  CLOUDY    25  13  61 SE7       30.19F WCI  17
GREENCASTLE +  CLOUDY    27  14  59 E6        30.19F WCI  20
LAFAYETTE      CLOUDY    25  17  72 E9        30.18F WCI  15
TERRE HAUTE    CLOUDY    29  17  61 SE6       30.18F WCI  23

$$

INZ030>032-037>040-046>048-054>057-064-065-030900-
CENTRAL INDIANA

CITY           SKY/WX    TMP DP  RH WIND       PRES   REMARKS
CP ATTERBURY + MOCLDY    28  19  69 E6        30.21F WCI  22
FRANKFORT +    CLOUDY    25  19  76 E9        30.21F WCI  16
GREENWOOD *+   MOCLDY    27  14  59 SE7       30.20F WCI  19
INDIANAPOLIS   CLOUDY    27  16  63 E5        30.20F WCI  22
-EAGLE CREEK   CLOUDY    26  16  65 SE8       30.20F WCI  18
KOKOMO *+      CLOUDY    25  16  68 SE12      30.21F WCI  14
MARION +       CLOUDY    24  15  67 E7        30.23F WCI  16
MT COMFORT *+  CLOUDY    25   9  50 SE6       30.21F WCI  18
SHELBYVILLE    MOCLDY    27  17  66 E5        30.20F WCI  22
ZIONSVILLE +   CLOUDY    26  15  63 SE6       30.20F WCI  19

$$

INZ033-034-041-042-049-050-058-059-030900-
EAST CENTRAL INDIANA

CITY           SKY/WX    TMP DP  RH WIND       PRES   REMARKS
MUNCIE         CLOUDY    24  15  68 SE5       30.22F WCI  18

$$

INZ060-061-067>069-081>083-085>088-030900-
SOUTHWEST INDIANA

CITY           SKY/WX    TMP DP  RH WIND       PRES   REMARKS
EVANSVILLE     CLOUDY    34  22  61 E6        30.18F WCI  29
HUNTINGBURG *+ CLOUDY    32  21  64 SE8       30.18F WCI  25
WASHINGTON +   CLOUDY    31  19  63 SE7       30.18F WCI  24

$$

INZ062-063-066-070>080-084-089>092-030900-
SOUTH CENTRAL AND SOUTHEAST INDIANA

CITY           SKY/WX    TMP DP  RH WIND       PRES   REMARKS
BLOOMINGTON    CLOUDY    29  17  61 SE7       30.18F WCI  22
NORTH VERNON + MOCLDY    30  16  55 E6        30.19F WCI  24
SEYMOUR +      MOCLDY    28  19  69 CALM      30.21F

$$




USA.gov is the U.S. government's official web portal to all federal, state and local government web resources and services.